Погода Удское

Погода Удское : погода сейчас, прогноз погоды и архив. Всё, что Вы хотите узнать о погоде Удское!

Поиск расширенной информации на нашем сайте:

Другие новости

Новости СМИ2

Главная страница сайта

Новости сайта

03.07.2017

Напоминаем, что на нашем специализированном сайте Метеоцентр.Азия вы можете получить высокодетализированные автоматические прогнозы погоды по пунктам России, СНГ и мира в авиационном формате (включающие направление и скорость ветра, видимость, явления погоды, количество и форму облачности, нижнюю и верхнюю границу облачности).


Погода Удское - сегодня

Время (UTC), дата Ветер
(°,м/с) 
Видим.   Явления Облачность Т
(°С)
Тd
(°С)
f(%) Тe
(°С)
Pmin
(гПа)
dP
(гПа)
Po
(мм)
O2
(г/м3)
Тmin Tmax R s Состояние
почвы
12 15.04.18 тихо ()   20000 м    ясно 
-2 -4.8 81 -2  1008.2  0.7  750  305           
15 15.04.18 тихо ()   20000 м    ясно 
-3.1 -5.8 82 -3  1007.9  -0.4  750  306           
18 15.04.18 тихо ()   20000 м    ясно 
-3.8 -7.1 78 -4  1007.3  -0.6  750  307           
00 16.04.18 250 (З) 20000 м    ясно 
+3.8 -4.6 54 +5  1004.9  -0.5  748  298           
03 16.04.18 200 (Ю) 20000 м    1/0 верхняя 
[Ci fib]
+10.7 -2.3 40 +11  1002.3  -2.7  746  290           
06 16.04.18 200 (Ю) 20000 м    4/0 верхняя 
[Cs]
+13 -2.1 35 +14  1000.4  -1.8  745  287           
12 16.04.18 200 (Ю) 20000 м    10/3 1000 м средняя, верхняя 
[Sc diur, vesp|Ac As|Cs]
-0.8 -3.3 83 1002.2  746  302           
15 16.04.18 180 (Ю) 20000 м    9/0 средняя, верхняя 
[Ac As|Cs]
-2.8 -3.8 93 -2  1002.4  0.2  746  304           
18 16.04.18 170 (Ю) 20000 м    10/0 средняя, верхняя 
[Ac As|Cs]
-3.2 -3.9 95 -3  1002.1  -0.4  746  304           
00 17.04.18 000 (С) 20  20000 м    1/0 средняя, верхняя 
[Ac cast|Cs]
-2.3   1002  746             
03 17.04.18 290 (З) 20000 м    8/0 средняя, верхняя 
[Ac cast|Cs]
+13.8 +0.3 40 +13  1000.6  -1.2  745  286           
12 17.04.18 450 () 20000 м    6/0 средняя, верхняя 
[Ac lent|Cs]
+5.2 -0.6 66 +5  1004.2  4.6  747  296           
15 17.04.18 050 (СВ) 20000 м    8/0 верхняя 
[Cs]
+1.4 -3.4 70 +2  1007  2.6  749  301           
00 18.04.18 360 (С) 20000 м    6/4 1000 м средняя, верхняя 
[Sc|Ac lent|Cc]
+5.7 -7.1 39 +7  1010.9  0.8  752  298           
03 18.04.18 360 (С) 20000 м    ясно 
+8.4 -10.5 25 +9  1010.8  752  295           
06 18.04.18 200 (Ю) 20000 м    ясно 
+10.3 -5.9 31 +11  1009.3  -1.5  751  292           
12 18.04.18 тихо ()   20000 м    8/0 верхняя 
[Cs]
-2 -4.3 84 -2  1010  0.4  752  306           
15 18.04.18 тихо ()   20000 м    4/0 верхняя 
[Ci fib]
-3.4 -5.5 85 -3  1011.2  1.1  752  308           
18 18.04.18 тихо ()   20000 м    4/0 верхняя 
[Ci fib]
-6.4 -7.6 91 -6  1011.5  0.3  753  311           
00 19.04.18 тихо ()   20000 м    1/0 верхняя 
[Ci fib]
+6.1 -3.5 50 +6  1010.2  -0.5  752  297           
03 19.04.18 180 (Ю) 20000 м    3/0 верхняя 
[Ci fib]
+11.5 -5.8 29 +13  1008  -1.1  750  291           
06 19.04.18 180 (Ю) 20000 м    8/1 1000 м верхняя 
[Cu med, cong|Cs]
+13.5 -6.9 24 +15  1004.8  -3.1  748  288           
12 19.04.18 090 (В) 20000 м    8/0 средняя, верхняя 
[Ac lent|Ci fib]
+2.8 -5.6 54 +4  1004.9  0.8  748  299           
15 19.04.18 230 (ЮЗ) 20000 м    8/0 средняя, верхняя 
[Ac lent|Ci fib]
+1 -4.6 66 +2  1005.9  0.8  749  301           
18 19.04.18 230 (ЮЗ) 20000 м    10/0 средняя, верхняя 
[Ac As|Cs]
+0.6 -2.3 81 +1  1008  2.1  750  302           
Время (UTC), дата Ветер
(°,м/с) 
Видим.   Явления Облачность Т
(°С)
Тd
(°С)
f(%) Тe
(°С)
Pmin
(гПа)
dP
(гПа)
Po
(мм)
O2
(г/м3)
Тmin Tmax R s Состояние
почвы

Для получения пояснительной информации подведите курсор к названию столбца.

ПОГОДА Удское - архив

Всё, что Вы хотите узнать о погоде Удское - удобно и подробно!

Выберите нужную дату (начиная с 1 января 2015* года) и нажмите кнопку "Найти".
Будут отображены архивные сводки погоды по пункту Удское, начиная с указанной даты.


Отображать данные в формате CSV (для использования в таблицах Excel)


Внимание! Наш архив погоды предназначен исключительно для личного некоммерческого использования в познавательных целях. Если Вам необходимы официальные справки о состоянии погоды (для производственных, юридических, коммерческих и т.п. целей), обращайтесь в органы Росгидромета.

*Примечание: данная дата относится к архиву по метеостанциям СССР (Россия, СНГ, Балтия).
Архив по метеостанциям Зарубежной Европы и Азии (кроме Китая) хранится 10 дней, по другим регионам земного шара (Китай, Африка, Америка, Австралия, Океания) - 1 день.

Удское - район местоположения метеостанции


Название, широта, долгота, высота метеостанции:
Удское 54.53°ш. 134.42°д. 57 м над ур. моря [Российская Федерация]

Дополнительная информация

В oтличие oт бoльшинства пoгoдных сайтoв мы публикуем пoдрoбную метеoинфoрмацию в детальнoм прoфессиoнальнoм фoрмате.

Характеристики температуры и влажнoсти вoздуха измеряются на высoте 2 м в тени вдали oт зданий и деревьев.
Скoрoсть ветра измеряется на высoте 10 м (на урoвне рoста челoвека скoрoсть ветра ниже в 1.5-2 раза). Если метеoстанция нахoдится в гoрoде или в лесу, тo скoрoсть ветра занижена на 2-4 м/с пo сравнению с oткрытым местoм. Скoрoсть ветра над акватoриями крупных рек и oзёр, а также на вершинах хoлмoв на 2-5 м/с выше, чем в oбычных услoвиях.
Атмoсфернoе давление в разных тoчках местнoсти мoжет значительнo oтличаться oт давления на метеoстанции, в зависимoсти oт услoвий рельефа (при пoдъёме на 10 м давление пoнижается примернo на 1 мм рт.ст.).